FW3688 Weather Reports


Display with metric or nautical units.
time (UTC)temp
F
wind
direction
speed
MPH
gust
MPH
rain 1hr
in
rain 24hr
in
rain mn
in
humidity
%
barometer
mb
20190920100743 62 261 5.0 14.0 0.00 0.00 0.00 80 1026.5
20190920100242 61 267 5.0 14.0 0.00 0.00 0.00 83 1026.5
20190920094740 61 265 3.0 9.0 0.00 0.00 0.00 83 1026.6
20190920094240 61 266 6.0 13.0 0.00 0.00 0.00 82 1026.6
20190920093740 61 268 5.0 9.0 0.00 0.00 0.00 83 1026.6
20190920093241 61 293 4.0 14.0 0.00 0.00 0.00 85 1026.5
20190920091740 60 259 7.0 17.0 0.00 0.00 0.00 85 1026.6
20190920091241 60 262 6.0 13.0 0.00 0.00 0.00 85 1026.7
20190920090741 60 261 7.0 12.0 0.00 0.00 0.00 85 1026.6
20190920090241 60 251 8.0 12.0 0.00 0.00 0.00 85 1026.6
20190920084741 60 267 7.0 13.0 0.00 0.00 0.00 86 1026.5
20190920084241 60 264 6.0 12.0 0.00 0.00 0.00 87 1026.5
20190920083741 59 273 3.0 8.0 0.00 0.00 0.00 87 1026.4
20190920083241 59 267 6.0 13.0 0.00 0.00 0.00 88 1026.4
20190920081741 58 269 4.0 9.0 0.00 0.00 0.00 89 1026.5
20190920081241 57 258 5.0 8.0 0.00 0.00 0.00 89 1026.5
20190920080743 57 252 3.0 9.0 0.00 0.00 0.00 89 1026.6
20190920080240 57 259 4.0 9.0 0.00 0.00 0.00 89 1026.7
20190920074742 56 252 4.0 8.0 0.00 0.00 0.00 90 1026.6
20190920074241 56 248 4.0 9.0 0.00 0.00 0.00 90 1026.7
20190920073740 56 252 2.0 7.0 0.00 0.00 0.00 90 1026.7
20190920073240 56 252 2.0 9.0 0.00 0.00 0.00 91 1026.6
20190920071741 55 250 2.0 6.0 0.00 0.00 0.00 91 1026.6
20190920071241 55 219 1.0 5.0 0.00 0.00 0.00 91 1026.5
20190920070740 55 247 1.0 5.0 0.00 0.00 0.00 91 1026.6
20190920070241 54 225 1.0 6.0 0.00 0.00 0.00 91 1026.6
20190920064740 54 241 2.0 5.0 0.00 0.00 0.00 92 1026.5
20190920064241 54 259 2.0 6.0 0.00 0.00 0.00 92 1026.6
20190920063740 53 261 2.0 7.0 0.00 0.00 0.00 92 1026.6
20190920063241 53 253 3.0 8.0 0.00 0.00 0.00 92 1026.5
20190920061741 52 249 3.0 7.0 0.00 0.00 0.00 93 1026.4
20190920061241 52 252 2.0 6.0 0.00 0.00 0.00 93 1026.4
20190920060741 52 264 1.0 6.0 0.00 0.00 0.00 92 1026.4
20190920060241 52 260 3.0 8.0 0.00 0.00 0.00 93 1026.4
20190920054741 51 254 1.0 6.0 0.00 0.00 0.00 93 1026.4
20190920054242 51 245 1.0 6.0 0.00 0.00 0.00 92 1026.4
20190920053741 51 225 1.0 2.0 0.00 0.00 0.00 92 1026.3
20190920053241 51 253 1.0 5.0 0.00 0.00 0.00 92 1026.2
20190920051741 51 246 1.0 5.0 0.00 0.00 0.00 92 1026.2
20190920051241 51 257 1.0 6.0 0.00 0.00 0.00 92 1026.2
20190920050741 51 261 2.0 6.0 0.00 0.00 0.00 92 1026.3
20190920050242 51 252 2.0 7.0 0.00 0.00 0.00 92 1026.3
20190920044741 51 246 2.0 9.0 0.00 0.00 0.00 92 1026.4
20190920044241 51 261 2.0 6.0 0.00 0.00 0.00 92 1026.4
20190920043741 51 248 3.0 8.0 0.00 0.00 0.00 92 1026.4
20190920043241 51 250 2.0 6.0 0.00 0.00 0.00 92 1026.4
20190920041742 51 258 2.0 5.0 0.00 0.00 0.00 92 1026.5
20190920041241 51 246 2.0 6.0 0.00 0.00 0.00 92 1026.5
20190920040742 51 239 2.0 6.0 0.00 0.00 0.00 92 1026.5
20190920040241 50 231 3.0 8.0 0.00 0.00 0.00 92 1026.5
20190920034742 50 232 2.0 8.0 0.00 0.00 0.00 92 1026.7
20190920034241 50 240 2.0 8.0 0.00 0.00 0.00 92 1026.7
20190920033741 50 252 2.0 6.0 0.00 0.00 0.00 92 1026.8
20190920033242 50 240 2.0 7.0 0.00 0.00 0.00 91 1026.9
20190920031741 50 232 2.0 6.0 0.00 0.00 0.00 91 1027.0
20190920031242 50 235 2.0 6.0 0.00 0.00 0.00 91 1027.1
20190920030741 50 239 2.0 5.0 0.00 0.00 0.00 91 1027.1
20190920030242 50 238 2.0 6.0 0.00 0.00 0.00 91 1027.2
20190920024741 50 231 2.0 6.0 0.00 0.00 0.00 91 1027.2
20190920024242 50 246 3.0 6.0 0.00 0.00 0.00 91 1027.3
20190920023742 50 246 2.0 5.0 0.00 0.00 0.00 90 1027.3
20190920023241 50 251 1.0 5.0 0.00 0.00 0.00 90 1027.3
20190920021742 50 249 0.0 5.0 0.00 0.00 0.00 90 1027.4
20190920021241 49 249 1.0 5.0 0.00 0.00 0.00 90 1027.4
20190920020742 49 248 1.0 3.0 0.00 0.00 0.00 91 1027.4
20190920020242 49 254 0.0 5.0 0.00 0.00 0.00 90 1027.4
20190920014742 49 251 1.0 5.0 0.00 0.00 0.00 90 1027.5
20190920014242 49 241 1.0 5.0 0.00 0.00 0.00 90 1027.6
20190920013742 49 251 2.0 6.0 0.00 0.00 0.00 90 1027.5
20190920013241 49 262 1.0 6.0 0.00 0.00 0.00 90 1027.5
20190920011742 49 244 2.0 6.0 0.00 0.00 0.00 89 1027.6
20190920011242 49 243 1.0 3.0 0.00 0.00 0.00 89 1027.6
20190920010742 49 240 2.0 5.0 0.00 0.00 0.00 89 1027.7
20190920010242 49 249 2.0 3.0 0.00 0.00 0.00 89 1027.7
20190920004742 49 251 0.0 3.0 0.00 0.00 0.00 89 1027.9
20190920004242 49 229 1.0 2.0 0.00 0.00 0.00 89 1027.8
20190920003742 49 242 1.0 2.0 0.00 0.00 0.00 89 1027.8
20190920003242 49 248 0.0 5.0 0.00 0.00 0.00 89 1027.9
20190920001742 49 259 2.0 5.0 0.00 0.00 0.00 89 1027.8
20190920001242 48 252 2.0 6.0 0.00 0.00 0.00 89 1027.8
20190920000742 48 250 0.0 3.0 0.00 0.00 0.00 89 1027.8
20190920000242 48 241 0.0 5.0 0.00 0.00 0.00 89 1027.9
20190919234742 48 243 1.0 3.0 0.00 0.00 0.00 89 1027.8
20190919234242 48 253 0.0 2.0 0.00 0.00 0.00 89 1027.8
20190919233742 48 263 1.0 6.0 0.00 0.00 0.00 89 1027.8
20190919233242 48 225 0.0 3.0 0.00 0.00 0.00 89 1027.9
20190919231742 48 252 0.0 0.0 0.00 0.00 0.00 88 1027.8
20190919231243 48 253 0.0 0.0 0.00 0.00 0.00 88 1027.7
20190919230742 48 249 1.0 3.0 0.00 0.00 0.00 89 1027.8
20190919230242 48 244 1.0 6.0 0.00 0.00 0.00 89 1027.7
20190919224743 48 243 0.0 0.0 0.00 0.00 0.00 89 1027.9
20190919224242 48 231 1.0 5.0 0.00 0.00 0.00 89 1027.9
20190919223742 47 251 1.0 6.0 0.00 0.00 0.00 89 1027.8
20190919223242 47 247 2.0 3.0 0.00 0.00 0.00 89 1027.8
20190919221743 48 244 0.0 0.0 0.00 0.00 0.00 88 1027.9
20190919221242 48 248 0.0 0.0 0.00 0.00 0.00 88 1028.0
20190919220742 48 251 0.0 0.0 0.00 0.00 0.00 88 1028.1
20190919220242 48 249 0.0 5.0 0.00 0.00 0.00 88 1028.0
20190919214743 48 243 0.0 0.0 0.00 0.00 0.00 88 1028.1
20190919214243 48 240 0.0 5.0 0.00 0.00 0.00 88 1028.1
20190919213742 48 236 0.0 3.0 0.00 0.00 0.00 87 1028.3
20190919213242 48 242 1.0 3.0 0.00 0.00 0.00 87 1028.2
20190919211743 48 253 1.0 6.0 0.00 0.00 0.00 85 1028.1
20190919211243 49 239 2.0 5.0 0.00 0.00 0.00 85 1028.1
20190919210743 49 236 1.0 5.0 0.00 0.00 0.00 85 1028.1
20190919210243 49 249 0.0 5.0 0.00 0.00 0.00 85 1028.2
20190919204743 50 260 2.0 5.0 0.00 0.00 0.00 84 1028.0
20190919204242 50 261 3.0 7.0 0.00 0.00 0.00 83 1028.0
20190919203743 50 251 2.0 7.0 0.00 0.00 0.00 83 1028.1
20190919203243 50 265 2.0 8.0 0.00 0.00 0.00 83 1028.1
20190919201743 50 264 2.0 7.0 0.00 0.00 0.00 82 1028.0
20190919201243 50 267 3.0 8.0 0.00 0.00 0.00 82 1028.1
20190919200745 50 261 3.0 7.0 0.00 0.00 0.00 82 1028.0
20190919200242 50 260 3.0 7.0 0.00 0.00 0.00 82 1028.0
20190919194743 51 276 3.0 7.0 0.00 0.00 0.00 82 1027.8
20190919194243 51 252 3.0 6.0 0.00 0.00 0.00 81 1027.9
20190919193743 51 274 4.0 7.0 0.00 0.00 0.00 81 1027.9
20190919193243 51 257 4.0 7.0 0.00 0.00 0.00 81 1027.9
20190919191743 51 265 5.0 8.0 0.00 0.00 0.00 80 1027.8
20190919191243 51 277 3.0 8.0 0.00 0.00 0.00 80 1027.8
20190919190743 51 258 4.0 7.0 0.00 0.00 0.00 80 1027.8
20190919190243 51 265 4.0 8.0 0.00 0.00 0.00 80 1027.8
20190919184743 52 258 5.0 7.0 0.00 0.00 0.00 80 1027.7
20190919184243 52 252 3.0 7.0 0.00 0.00 0.00 80 1027.8
20190919183743 52 256 4.0 7.0 0.00 0.00 0.00 80 1027.8
20190919183243 52 258 4.0 8.0 0.00 0.00 0.00 80 1027.7
20190919181744 52 261 3.0 7.0 0.00 0.00 0.00 79 1027.8
20190919181244 52 255 6.0 8.0 0.00 0.00 0.00 78 1027.9
20190919180746 52 263 5.0 7.0 0.00 0.00 0.00 78 1027.9
20190919180245 52 286 4.0 9.0 0.00 0.00 0.00 77 1027.8
20190919174743 53 260 3.0 10.0 0.00 0.00 0.00 77 1027.7
20190919174244 53 253 6.0 8.0 0.00 0.00 0.00 76 1027.6
20190919173744 53 263 6.0 9.0 0.00 0.00 0.00 76 1027.7
20190919173244 53 268 5.0 10.0 0.00 0.00 0.00 76 1027.7
20190919171744 54 261 5.0 9.0 0.00 0.00 0.00 74 1027.4
20190919171244 54 264 4.0 9.0 0.00 0.00 0.00 74 1027.4
20190919170743 54 262 3.0 8.0 0.00 0.00 0.00 73 1027.4
20190919170244 54 258 5.0 10.0 0.00 0.00 0.00 73 1027.4
20190919164744 55 265 6.0 10.0 0.00 0.00 0.00 71 1027.4
20190919164244 56 266 6.0 9.0 0.00 0.00 0.00 71 1027.4
20190919163743 56 262 5.0 9.0 0.00 0.00 0.00 71 1027.3
20190919163244 56 257 3.0 10.0 0.00 0.00 0.00 71 1027.5
20190919161744 56 251 6.0 13.0 0.00 0.00 0.00 70 1027.4
20190919161243 57 272 5.0 9.0 0.00 0.00 0.00 70 1027.3
20190919160743 57 259 6.0 8.0 0.00 0.00 0.00 69 1027.0
20190919160243 57 262 5.0 10.0 0.00 0.00 0.00 68 1027.1
20190919154744 57 36 2.0 6.0 0.00 0.00 0.00 72 1027.1
20190919154244 57 335 0.0 6.0 0.00 0.00 0.00 73 1027.2
20190919153744 57 308 1.0 5.0 0.00 0.00 0.00 71 1027.2
20190919153244 58 292 1.0 8.0 0.00 0.00 0.00 70 1027.0
20190919151744 58 290 1.0 10.0 0.00 0.00 0.00 69 1027.2
20190919151244 58 0 1.0 6.0 0.00 0.00 0.00 69 1027.1
20190919150747 57 325 0.0 2.0 0.00 0.00 0.00 69 1027.2
20190919150244 57 314 1.0 8.0 0.00 0.00 0.00 67 1027.0
20190919144744 59 268 0.0 2.0 0.00 0.00 0.00 63 1027.0
20190919144244 59 273 5.0 8.0 0.00 0.00 0.00 62 1027.0
20190919143743 58 260 5.0 8.0 0.00 0.00 0.00 63 1027.0
20190919143244 58 266 4.0 9.0 0.00 0.00 0.00 63 1027.0
20190919141743 60 278 0.0 6.0 0.00 0.00 0.00 64 1027.1
20190919141244 59 270 5.0 10.0 0.00 0.00 0.00 60 1027.1
20190919140744 60 262 2.0 12.0 0.00 0.00 0.00 61 1027.2
20190919140244 61 238 3.0 10.0 0.00 0.00 0.00 62 1027.1
20190919134744 61 192 2.0 9.0 0.00 0.00 0.00 61 1027.1
20190919134244 61 267 4.0 9.0 0.00 0.00 0.00 60 1027.1
20190919133744 61 274 2.0 9.0 0.00 0.00 0.00 62 1027.2
20190919133244 60 254 5.0 9.0 0.00 0.00 0.00 62 1027.2
20190919131744 61 231 2.0 8.0 0.00 0.00 0.00 59 1027.2
20190919131244 61 265 3.0 9.0 0.00 0.00 0.00 60 1027.1
20190919130744 61 226 2.0 6.0 0.00 0.00 0.00 61 1027.2
20190919130244 61 341 1.0 9.0 0.00 0.00 0.00 61 1027.3
20190919124745 60 245 5.0 8.0 0.00 0.00 0.00 61 1027.4
20190919124244 60 283 1.0 7.0 0.00 0.00 0.00 63 1027.4
20190919123744 58 216 1.0 5.0 0.00 0.00 0.00 64 1027.4
20190919123244 60 290 2.0 9.0 0.00 0.00 0.00 62 1027.4
20190919121745 60 277 3.0 9.0 0.00 0.00 0.00 62 1027.4
20190919121244 60 286 3.0 8.0 0.00 0.00 0.00 63 1027.4
20190919120747 60 270 1.0 9.0 0.00 0.00 0.00 66 1027.5
20190919120244 60 312 2.0 10.0 0.00 0.00 0.00 62 1027.4
20190919114745 61 262 3.0 7.0 0.00 0.00 0.00 65 1027.6
20190919114245 61 233 4.0 9.0 0.00 0.00 0.00 63 1027.5
20190919113745 61 261 2.0 9.0 0.00 0.00 0.00 66 1027.6
20190919113245 61 277 2.0 9.0 0.00 0.00 0.00 67 1027.7
20190919111745 60 268 3.0 10.0 0.00 0.00 0.00 67 1027.6
20190919111245 60 277 1.0 9.0 0.00 0.00 0.00 69 1027.6
20190919110747 59 229 3.0 9.0 0.00 0.00 0.00 70 1027.6
20190919110245 59 317 2.0 7.0 0.00 0.00 0.00 67 1027.6
20190919104745 59 235 4.0 7.0 0.00 0.00 0.00 68 1027.7
20190919104244 58 260 5.0 12.0 0.00 0.00 0.00 68 1027.7
20190919103744 58 245 4.0 10.0 0.00 0.00 0.00 66 1027.7
20190919103244 59 257 4.0 10.0 0.00 0.00 0.00 69 1027.7
20190919101745 58 260 6.0 12.0 0.00 0.00 0.00 67 1027.6
20190919101244 58 302 1.0 6.0 0.00 0.00 0.00 70 1027.7